This demonstration page uses our WeatherBlox Daily Observations layout. Learn more.

Left ArrowRight Arrow

Hourly Observations for April 22, 2021

Temp ( °F °C ) Dew Point ( °F °C ) Humidity (%) Winds ( mph kmh ) Pressure ( in mb ) Visibility ( mi km ) Precip ( " mm )
12:53 am 00:53 Clear 31 -0.6 14 -10 49 49 Calm 29.72 1007 10 16 0.00 0.00
1:53 am 01:53 Clear 31 -0.6 17 -8.3 56 56 Calm 29.70 1006 10 16 0.00 0.00
2:53 am 02:53 Clear 30 -1.1 18 -7.8 61 61 WNW 3 6 29.68 1005 10 16 0.00 0.00
3:53 am 03:53 Clear 33 0.6 17 -8.3 52 52 S 5 7 29.65 1004 10 16 0.00 0.00
4:53 am 04:53 Clear 30 -1.1 20 -6.7 66 66 E 3 6 29.65 1004 10 16 0.00 0.00
5:53 am 05:53 Clear 27 -2.8 20 -6.7 75 75 E 6 9 29.68 1005 10 16 0.00 0.00
6:53 am 06:53 Sunny 26 -3.3 20 -6.7 78 78 ENE 10 17 29.70 1006 10 16 0.00 0.00
7:53 am 07:53 Sunny 35 1.7 23 -5 61 61 SSE 5 7 29.73 1007 10 16 0.00 0.00
8:53 am 08:53 Sunny 42 5.6 23 -5 47 47 NNW 6 9 29.77 1008 10 16 0.00 0.00
9:53 am 09:53 Mostly Sunny 46 7.8 29 -1.7 51 51 N 23 37 29.79 1009 10 16 0.00 0.00
10:53 am 10:53 Partly Cloudy 49 9.4 29 -1.7 46 46 N 20 31 29.82 1010 10 16 0.00 0.00
11:53 am 11:53 Cloudy 45 7.2 28 -2.2 52 52 N 21 33 29.88 1012 10 16 0.00 0.00
12:53 pm 12:53 Cloudy 43 6.1 27 -2.8 53 53 NNE 21 33 29.92 1013 10 16 0.00 0.00
1:53 pm 13:53 Cloudy 41 5 25 -3.9 53 53 NNE 20 31 29.95 1014 10 16 0.00 0.00
2:53 pm 14:53 Cloudy with Light Snow 37 2.8 31 -0.6 79 79 N 17 28 30.00 1016 4 6 0.00 0.00
3:10 pm 15:10 Cloudy with Light Snow 36 2 30 -1 81 81 NNE 14 22 30.02 1017 2 3 0.00 0.00
3:22 pm 15:22 Cloudy with Light Snow 35 1.7 31 -0.6 85 85 NNE 14 22 30.03 1017 3 4 0.00 0.00
3:29 pm 15:29 Cloudy with Light Snow 35 1.7 31 -0.6 85 85 NNE 14 22 30.03 1017 3 5 0.00 0.00
3:39 pm 15:39 Cloudy with Light Snow 35 1.7 31 -0.6 85 85 NE 12 19 30.02 1017 5 8 0.00 0.00
3:53 pm 15:53 Cloudy with Light Snow 36 2.2 31 -0.6 82 82 NE 10 17 30.01 1016 7 11 0.00 0.00
4:25 pm 16:25 Cloudy 37 2.8 29 -1.7 73 73 N 8 13 30.03 1017 10 16 0.00 0.00
4:53 pm 16:53 Cloudy 36 2.2 26 -3.3 67 67 N 10 17 30.04 1017 10 16 0.00 0.00
5:53 pm 17:53 Cloudy with Light Snow 33 0.6 28 -2.2 82 82 N 9 15 30.06 1018 3 5 0.01 0.25
5:58 pm 17:58 Cloudy with Light Snow 33 0.6 28 -2.2 82 82 N 10 17 30.07 1018 2 3 0.00 0.00
6:10 pm 18:10 Cloudy with Light Snow 32 0 29 -1.7 88 88 N 7 11 30.09 1019 1 2 0.00 0.00
6:33 pm 18:33 Cloudy with Light Snow 32 0 30 -1.1 92 92 N 7 11 30.09 1019 1 2 0.01 0.25
6:41 pm 18:41 Cloudy with Light Snow 33 0.6 29 -1.7 85 85 N 8 13 30.09 1019 2 3 0.01 0.25
6:53 pm 18:53 Cloudy with Light Snow 33 0.6 29 -1.7 85 85 N 7 11 30.08 1019 3 4 0.02 0.51
7:09 pm 19:09 Cloudy with Light Snow 33 0.6 30 -1.1 89 89 N 8 13 30.09 1019 3 5 0.00 0.00
7:16 pm 19:16 Cloudy with Light Snow 33 0.6 30 -1.1 89 89 N 6 9 30.09 1019 3 4 0.00 0.00
7:28 pm 19:28 Cloudy with Light Snow 32 0 30 -1.1 92 92 N 7 11 30.10 1019 2 3 0.00 0.00
7:30 pm 19:30 Cloudy with Light Snow 32 0 30 -1.1 92 92 N 8 13 30.10 1019 2 3 0.00 0.00
7:36 pm 19:36 Cloudy with Light Snow 32 0 29 -1.7 88 88 N 6 9 30.10 1019 2 3 0.00 0.00
7:53 pm 19:53 Cloudy with Light Snow 32 0 30 -1.1 92 92 N 7 11 30.07 1018 3 4 0.00 0.00
8:07 pm 20:07 Cloudy with Light Snow 32 0 30 -1.1 92 92 N 3 6 30.11 1020 3 5 0.01 0.25
8:16 pm 20:16 Cloudy with Light Snow 32 0 30 -1.1 92 92 N 5 7 30.11 1020 3 4 0.01 0.25
8:24 pm 20:24 Cloudy with Light Snow 32 0 30 -1 93 93 NNW 3 6 30.11 1020 3 5 0.00 0.00
8:33 pm 20:33 Cloudy with Light Snow 32 0 30 -1.1 92 92 NNW 7 11 30.11 1020 3 4 0.01 0.25
8:48 pm 20:48 Cloudy with Light Snow 32 0 30 -1 93 93 N 6 9 30.12 1020 3 4 0.02 0.51
8:53 pm 20:53 Cloudy with Light Snow 32 0 30 -1.1 92 92 N 6 9 30.08 1019 3 4 0.02 0.51
9:09 pm 21:09 Cloudy with Light Snow 32 0 30 -1.1 92 92 NNW 3 6 30.13 1020 2 3 0.00 0.00
9:15 pm 21:15 Cloudy with Light Snow 32 0 30 -1.1 92 92 NNW 6 9 30.13 1020 2 3 0.00 0.00
9:32 pm 21:32 Cloudy with Light Snow 32 0 28 -2.2 85 85 N 12 19 30.13 1020 3 4 0.01 0.25
9:34 pm 21:34 Cloudy with Light Snow 32 0 28 -2.2 85 85 N 13 20 30.13 1020 3 5 0.01 0.25
9:53 pm 21:53 Cloudy with Light Snow 31 -0.6 28 -2.2 89 89 N 12 19 30.09 1019 4 6 0.01 0.25
10:49 pm 22:49 Cloudy with Light Snow 30 -1 27 -3 86 86 N 10 17 30.16 1021 3 5 0.00 0.00
10:53 pm 22:53 Cloudy with Light Snow 30 -1.1 27 -2.8 88 88 N 9 15 30.11 1020 4 6 0.00 0.00
11:01 pm 23:01 Cloudy with Light Snow 30 -1.1 27 -2.8 88 88 N 8 13 30.17 1022 4 6 0.00 0.00
11:53 pm 23:53 Cloudy 30 -1.1 27 -2.8 88 88 NNE 5 7 30.11 1020 9 14 0.00 0.00

Powered by AerisWeather